Regional Weather Roundup
Issued by NWS Upton, NY

Current Version | Previous Version | Graphics & Text | Print | Product List | Glossary Off
Versions: 1 2 3 4 5 6 7 8 9 10 11 12 13 14 15 16 17 18 19 20 21 22 23 24 25 26 27 28 29 30 31 32 33 34 35 36 37 38 39 40 41 42 43 44 45 46 47 48 49 50

000
ASUS41 KOKX 250605
RWROKX

Regional Weather Roundup
National Weather Service New York NY
200 AM EDT WED APR 25 2018

Note: "FAIR" indicates few or no clouds below 12,000 feet with no
significant weather and/or obstructions to visibility.

NYZ071-072-176-178-NJZ106-104-250700-
New York City Metro Area

CITY           SKY/WX    TMP DP  RH WIND       PRES   REMARKS
Central Park   LGT RAIN  55  52  89 VRB5      30.11F
Bronx Bot Gard   N/A     50  46  87 NE5       30.09F
Bronx Lehman C   N/A     52  48  87 E10         N/A
LaGuardia Arpt LGT RAIN  52  48  86 NE12      30.09F
Queens College   N/A     55  52  88 E9          N/A
Kennedy Intl   LGT RAIN  53  52  96 E15       30.10F
Breezy Point     N/A     48 N/A N/A E10         N/A
Brooklyn Coll    N/A     52  50  93 E12         N/A
Staten Island    N/A     52  50  93 E13         N/A
Newark/Liberty LGT RAIN  54  53  97 E10       30.08F
Teterboro      LGT RAIN  53  50  89 E7        30.08F FOG
$$

NYZ177-179-078>081-250700-
Long Island New York

CITY           SKY/WX    TMP DP  RH WIND       PRES   REMARKS
Jones Beach      N/A     50 N/A N/A E8G15       N/A
Wantagh          N/A     52  50  93 E10         N/A
Hempstead        N/A     54  50  87 E8        30.12F
Matinecock Pt    N/A     46 N/A N/A E16         N/A
Farmingdale    LGT RAIN  53  51  93 E13G20    30.10F
MacArthur/ISP  CLOUDY    54  51  90 E12       30.10F
Stony Brook      N/A     54  50  87 SE7         N/A
Shirley        CLOUDY    53  51  93 SE8       30.12F
Mt Sinai Harb    N/A    N/A N/A N/A SE5         N/A
Westhampton    CLOUDY    51  46  83 E10       30.14F
East Hampton   CLOUDY    49  46  89 SE10      30.14F
Southold         N/A     54  48  82 SE7         N/A
Montauk          N/A     52  46  80 VRB7      30.17F
$$

NYZ052-065-067-250700-
Hudson Valley

CITY           SKY/WX    TMP DP  RH WIND       PRES   REMARKS
White Plains   LGT RAIN  50  46  86 E8        30.09F
Larchmont Harb   N/A     48 N/A N/A NE18        N/A
Croton On Huds   N/A     50 N/A N/A MISG        N/A
Somers           N/A     48  45  87 E6          N/A
Brewster         N/A     48  45  87 E2          N/A
Newburgh       LGT RAIN  48  48 100 E5        30.12F
Montgomery     LGT RAIN  48  45  89 N7        30.10F
Otisville        N/A     46  46 100 NE3         N/A
Warwick          N/A     48  48 100 NE3         N/A
Suffern          N/A     48  46  93 NE2         N/A
Poughkeepsie   LGT RAIN  49  46  90 VRB3      30.12F
Albany         LGT RAIN  51  45  79 S5        30.16F
$$

NJZ001-105-106-008-010-013-015-019>022-104-250700-
New Jersey

CITY           SKY/WX    TMP DP  RH WIND       PRES   REMARKS
Newark/Liberty LGT RAIN  54  53  97 E10       30.08F
Teterboro      LGT RAIN  53  50  89 E7        30.08F FOG
Caldwell       LGT RAIN  49  48  97 E9        30.09F
Somerville     LGT RAIN  53  52  96 E6        30.04F FOG
Linden         DRIZZLE   53  50  91 SE10      30.07F
Perth Amboy      N/A     50 N/A N/A E12G18      N/A
Sussex         LGT RAIN  49  47  93 NE6       30.09F
Andover          N/A     51  49  92 CALM      30.07F
Trenton        LGT RAIN  54  52  93 E9        30.03F FOG
Millville      RAIN      55  54  96 E13       29.96F FOG
Atlantic City  RAIN      55  55 100 E13       30.00F FOG
Wrightstown    CLOUDY    54  53  98 E9        30.00
Toms River     LGT RAIN  54  53  97 SE8G20    30.04F FOG
Belmar         LGT RAIN  52  51  97 E13         N/A  FOG
$$

PAZ047>061-062-071-250700-
Eastern Pennsylvania

CITY           SKY/WX    TMP DP  RH WIND       PRES   REMARKS
Philadelphia   LGT RAIN  53  53 100 E14       29.98F FOG
Allentown      LGT RAIN  53  49  86 E10       30.02F FOG
Scranton       RAIN      49  48  97 NE9       30.03F FOG
$$

CTZ002-004>006-009-010-012-RIZ004-006-007-MAZ004-011-015-250700-
Southern New England

 In CT

CITY           SKY/WX    TMP DP  RH WIND       PRES   REMARKS
Bradley Intl   CLOUDY    53  37  54 E5        30.17F
Hartford       CLOUDY    53  40  61 SE5       30.16F
Danbury        LGT RAIN  51  47  86 E3        30.13F
Wtrbury/Oxford LGT RAIN  51  46  83 E7        30.14F
Norwalk Harbor   N/A     48 N/A N/A NE18        N/A
Bridgeport     LGT RAIN  50  45  83 NE15      30.13F
Meriden        CLOUDY    53  43  68 CALM      30.15F
New Haven      CLOUDY    53  45  74 E9        30.14F
Chester        FAIR      52  45  76 E5G14     30.16F
Groton         FAIR      51  47  86 E14       30.16F
Willimantic    CLOUDY    52  40  63 CALM      30.18F

 In RI

CITY           SKY/WX    TMP DP  RH WIND       PRES   REMARKS
Providence     FAIR      50  42  74 NE3       30.21F
Block Island   FAIR      50  46  86 SE15G21   30.18F
Westerly       FAIR      51  46  83 E8        30.18F

In MA

CITY           SKY/WX    TMP DP  RH WIND       PRES   REMARKS
Boston         FAIR      51  37  58 S5        30.22F
Worcester      FAIR      48  34  58 SE5       30.19F
Westfield      CLOUDY    53  37  54 CALM      30.17F
Provincetown   FAIR      49  43  80 S8        30.24F
Nantucket      FAIR      48  47  96 SE14      30.22F
$$

ANZ330-335-338-340-345-350-353-355-250700-
Coastal Marine Observations


STATION/POSITION TIME  SKY/WX   TEMP    WIND        PRES    VSBY  WAVE
                                AIR SEA DIR/SP/G                  HT/PER
                 (UTC)          (F)     (DEG/KT/KT) (MB)    (MI)  (FT/S)
NY Harb Entrance 0550            50 47  110/ 14/ 17 1018.5          4/ 7
20 S Fire Island 0550            49 45  120/ 14/ 16 1018.7          5/ 7
23 SSW Montauk P 0550            48 45  130/ 14/ 16 1020.7          4/ 7
15 E Barnegat Li 0530               46                N/A           6/ 7
Hudson Canyon    0550            50 45  100/ 10/ 10 1018.5          5/ 7
Kings Point      0536            54 47  140/  3/  7 1020.4
Execution Rocks  NOT AVBL
Western LI Sound NOT AVBL
Central LI Sound 0545            47      70/ 10/ 12   N/A           1
Robbins Reef     0536            54     100/ 16/ 19 1019.5
$$


>>>>>>>>>>>>>>>>>>>>>>>>>>>> KEY <<<<<<<<<<<<<<<<<<<<<<<<<<<
>                                                          <
>     SKY/WX - Sky Condition/Present Weather               <
>     TMP    - Temperature in Fahrenheit                   <
>     DP     - Dew Point in Fahrenheit                     <
>     RH     - Relative Humidity in Percent                <
>     WIND   - Direction (from) and Speed in MPH           <
>     PRES   - Mean Sea Level Pressure (inches of Hg)      <
>     WCI    - Wind Chill Index                            <
>     VSB    - Visibility in Miles                         <
>     HX     - Heat Index                                  <
>     TC     - Temperature in Celsius                      <
>     VRB    - Varibale Wind Direction                     <
>                                                          <
>>>>>>>>>>>>>>>>>>>>>>>>>>>> KEY <<<<<<<<<<<<<<<<<<<<<<<<<<<



USA.gov is the U.S. government's official web portal to all federal, state and local government web resources and services.